STARLINK-2488 (48145 NORAD) Tracking and Keplerian Element Data

This shows tracking and keplerian element data for the satellite.

Feedback or suggestion? Click here.




ElementValue
Catalog48145
NameSTARLINK-2488
Epoch Orbit197
Epoch Day170.58334491
Epoch Year2021
RAAN338.1349
Inclination53.0476
Eccentricity0.000251
Argument of Perigee18.3869
Mean Anonmoly233.2478
Mean Motion15.73213062
Decay Rate-5.02E-06
L11 48145U 21027BF 21170.58334491 -.00000502 00000-0 85877-6 0 9991
L22 48145 53.0476 338.1349 0002510 18.3869 233.2478 15.73213062 1979

Live tracking and technical data element details for STARLINK-2488 (NORAD 48145). STARLINK-2488 can be tracked NOW for your location showing map with azimuth and elevation plus other details from your city location.

Track the satellite on the map from your city or location and see movement details for azimuth, elevation, latitude, longitude, range, height, and movement on the map or in text.







IsCatalogInMostPopularTable: catalog: 48145, numindb: 33
Update: records affected: 1



GetName: 48145 STARLINK-2488

Hit Count: updated at: Mon, 21 Jun 2021 04:51:33 GMT